| time (UTC) | temp F | wind direction | speed MPH | gust MPH | rain 1hr in | rain 24hr in | rain mn in | humidity % | barometer mb |
| 20260831025520 | 61 | 142 | 12.0 | 26.0 | 0.00 | 0.04 | 0.04 | 71 | 1024.3 |
| 20260831025019 | 61 | 170 | 17.0 | 27.0 | 0.00 | 0.04 | 0.04 | 71 | 1024.5 |
| 20260831024606 | 61 | 184 | 19.0 | 27.0 | 0.00 | 0.04 | 0.04 | 72 | 1024.6 |
| 20260831024018 | 61 | 181 | 19.0 | 27.0 | 0.00 | 0.04 | 0.04 | 72 | 1024.6 |
| 20260831023519 | 60 | 154 | 11.0 | 19.0 | 0.00 | 0.04 | 0.04 | 73 | 1024.7 |
| 20260831023041 | 60 | 128 | 9.0 | 13.0 | 0.00 | 0.04 | 0.04 | 75 | 1024.7 |
| 20260831022520 | 60 | 117 | 10.0 | 14.0 | 0.00 | 0.04 | 0.04 | 74 | 1024.4 |
| 20260831022018 | 60 | 117 | 11.0 | 14.0 | 0.00 | 0.04 | 0.04 | 73 | 1024.3 |
| 20260831021538 | 61 | 99 | 8.0 | 11.0 | 0.00 | 0.04 | 0.04 | 72 | 1024.0 |
| 20260831021021 | 61 | 134 | 7.0 | 11.0 | 0.00 | 0.04 | 0.04 | 71 | 1024.1 |
| 20260831020520 | 61 | 98 | 8.0 | 12.0 | 0.00 | 0.04 | 0.04 | 70 | 1023.9 |
| 20260831020038 | 61 | 98 | 8.0 | 12.0 | 0.00 | 0.04 | 0.04 | 70 | 1024.0 |
| 20260831015523 | 61 | 91 | 9.0 | 13.0 | 0.00 | 0.04 | 0.04 | 69 | 1023.9 |
| 20260831015017 | 61 | 101 | 8.0 | 13.0 | 0.00 | 0.04 | 0.04 | 70 | 1023.8 |
| 20260831014539 | 61 | 103 | 10.0 | 13.0 | 0.00 | 0.04 | 0.04 | 70 | 1023.9 |
| 20260831014020 | 61 | 96 | 9.0 | 13.0 | 0.00 | 0.04 | 0.04 | 70 | 1023.8 |
| 20260831013517 | 61 | 86 | 8.0 | 12.0 | 0.00 | 0.04 | 0.04 | 70 | 1023.8 |
| 20260831013045 | 61 | 85 | 9.0 | 13.0 | 0.00 | 0.04 | 0.04 | 70 | 1023.7 |
| 20260831012520 | 61 | 102 | 8.0 | 15.0 | 0.00 | 0.04 | 0.04 | 70 | 1023.6 |
| 20260831012020 | 61 | 103 | 10.0 | 15.0 | 0.00 | 0.04 | 0.04 | 71 | 1023.5 |
| 20260831011539 | 61 | 91 | 9.0 | 16.0 | 0.00 | 0.04 | 0.04 | 71 | 1023.6 |
| 20260831011020 | 61 | 103 | 11.0 | 16.0 | 0.00 | 0.04 | 0.04 | 69 | 1023.5 |
| 20260831010520 | 61 | 117 | 11.0 | 16.0 | 0.00 | 0.04 | 0.04 | 69 | 1023.4 |
| 20260831010037 | 61 | 112 | 11.0 | 18.0 | 0.00 | 0.04 | 0.04 | 69 | 1023.4 |
| 20260831005520 | 61 | 110 | 9.0 | 18.0 | 0.00 | 0.04 | 0.04 | 70 | 1023.6 |
| 20260831005018 | 61 | 112 | 12.0 | 16.0 | 0.00 | 0.04 | 0.04 | 70 | 1023.4 |
| 20260831004535 | 61 | 108 | 10.0 | 14.0 | 0.00 | 0.04 | 0.04 | 70 | 1023.3 |
| 20260831004024 | 62 | 86 | 9.0 | 12.0 | 0.00 | 0.04 | 0.04 | 69 | 1023.2 |
| 20260831003520 | 62 | 104 | 9.0 | 11.0 | 0.00 | 0.04 | 0.04 | 67 | 1023.2 |
| 20260831003037 | 62 | 127 | 7.0 | 12.0 | 0.00 | 0.04 | 0.04 | 66 | 1023.2 |
| 20260831002522 | 63 | 120 | 9.0 | 12.0 | 0.00 | 0.04 | 0.04 | 64 | 1023.3 |
| 20260831002018 | 63 | 151 | 9.0 | 14.0 | 0.00 | 0.04 | 0.04 | 64 | 1023.4 |
| 20260831001944 | 63 | 130 | 8.0 | 14.0 | 0.00 | 0.04 | 0.04 | 65 | 1023.0 |
| 20260830234626 | 70 | 244 | 11.0 | 20.0 | 0.00 | 0.04 | 0.04 | 49 | 1023.4 |
| 20260830234019 | 71 | 264 | 3.0 | 8.0 | 0.00 | 0.04 | 0.04 | 45 | 1023.1 |
| 20260830233519 | 71 | 303 | 2.0 | 4.0 | 0.00 | 0.04 | 0.04 | 43 | 1022.6 |
| 20260830233038 | 71 | 0 | 0.0 | 3.0 | 0.00 | 0.04 | 0.04 | 43 | 1022.5 |
| 20260830232524 | 71 | 0 | 1.0 | 6.0 | 0.00 | 0.04 | 0.04 | 43 | 1022.5 |
| 20260830232018 | 71 | 4 | 3.0 | 7.0 | 0.00 | 0.04 | 0.04 | 43 | 1022.5 |
| 20260830231536 | 71 | 349 | 4.0 | 7.0 | 0.00 | 0.04 | 0.04 | 44 | 1022.4 |
| 20260830231021 | 71 | 13 | 5.0 | 8.0 | 0.00 | 0.04 | 0.04 | 45 | 1022.4 |
| 20260830230518 | 71 | 356 | 5.0 | 10.0 | 0.00 | 0.04 | 0.04 | 45 | 1022.2 |
| 20260830230038 | 71 | 357 | 5.0 | 10.0 | 0.00 | 0.04 | 0.04 | 45 | 1022.4 |
| 20260830225520 | 72 | 357 | 6.0 | 11.0 | 0.00 | 0.04 | 0.04 | 45 | 1022.1 |
| 20260830225020 | 73 | 350 | 7.0 | 11.0 | 0.00 | 0.04 | 0.04 | 43 | 1022.3 |
| 20260830224542 | 73 | 354 | 8.0 | 10.0 | 0.00 | 0.04 | 0.04 | 43 | 1022.3 |
| 20260830224022 | 73 | 316 | 8.0 | 15.0 | 0.00 | 0.04 | 0.04 | 41 | 1022.3 |
| 20260830223518 | 71 | 310 | 10.0 | 16.0 | 0.00 | 0.04 | 0.04 | 46 | 1022.4 |
| 20260830223040 | 72 | 319 | 10.0 | 23.0 | 0.00 | 0.04 | 0.04 | 45 | 1022.4 |
| 20260830222520 | 71 | 305 | 16.0 | 23.0 | 0.00 | 0.04 | 0.04 | 49 | 1022.6 |
| 20260830222020 | 72 | 294 | 17.0 | 21.0 | 0.00 | 0.04 | 0.04 | 50 | 1022.6 |
| 20260830221544 | 73 | 297 | 14.0 | 23.0 | 0.00 | 0.04 | 0.04 | 48 | 1022.6 |
| 20260830221020 | 74 | 293 | 16.0 | 23.0 | 0.00 | 0.04 | 0.04 | 46 | 1022.6 |
| 20260830220522 | 75 | 302 | 11.0 | 16.0 | 0.00 | 0.04 | 0.04 | 42 | 1022.4 |
| 20260830220039 | 76 | 305 | 11.0 | 16.0 | 0.00 | 0.04 | 0.04 | 40 | 1022.4 |
| 20260830215519 | 76 | 313 | 12.0 | 15.0 | 0.00 | 0.04 | 0.04 | 40 | 1022.3 |
| 20260830215021 | 77 | 288 | 8.0 | 13.0 | 0.00 | 0.04 | 0.04 | 40 | 1022.4 |
| 20260830214539 | 76 | 228 | 3.0 | 12.0 | 0.00 | 0.04 | 0.04 | 39 | 1022.3 |
| 20260830214017 | 77 | 296 | 7.0 | 12.0 | 0.00 | 0.04 | 0.04 | 38 | 1022.3 |
| 20260830213520 | 77 | 326 | 5.0 | 15.0 | 0.00 | 0.04 | 0.04 | 36 | 1022.3 |
| 20260830213039 | 76 | 316 | 8.0 | 15.0 | 0.00 | 0.04 | 0.04 | 38 | 1022.4 |
| 20260830212518 | 76 | 318 | 5.0 | 15.0 | 0.00 | 0.04 | 0.04 | 40 | 1022.4 |
| 20260830212018 | 77 | 302 | 9.0 | 17.0 | 0.00 | 0.04 | 0.04 | 38 | 1022.3 |
| 20260830211541 | 76 | 354 | 6.0 | 17.0 | 0.00 | 0.04 | 0.04 | 40 | 1022.4 |
| 20260830211023 | 76 | 337 | 4.0 | 16.0 | 0.00 | 0.04 | 0.04 | 39 | 1022.5 |
| 20260830210519 | 76 | 351 | 9.0 | 16.0 | 0.00 | 0.04 | 0.04 | 39 | 1022.6 |
| 20260830210042 | 75 | 345 | 9.0 | 18.0 | 0.00 | 0.04 | 0.04 | 41 | 1022.6 |
| 20260830205520 | 75 | 328 | 11.0 | 18.0 | 0.00 | 0.04 | 0.04 | 40 | 1022.9 |
| 20260830205018 | 74 | 327 | 12.0 | 18.0 | 0.00 | 0.04 | 0.04 | 40 | 1022.9 |
| 20260830204543 | 74 | 332 | 12.0 | 18.0 | 0.00 | 0.04 | 0.04 | 39 | 1022.8 |
| 20260830204019 | 74 | 1 | 12.0 | 21.0 | 0.00 | 0.04 | 0.04 | 40 | 1023.0 |
| 20260830203516 | 74 | 326 | 16.0 | 24.0 | 0.00 | 0.04 | 0.04 | 40 | 1023.2 |
| 20260830203049 | 73 | 326 | 17.0 | 24.0 | 0.00 | 0.04 | 0.04 | 40 | 1023.1 |
| 20260830202523 | 73 | 321 | 18.0 | 27.0 | 0.00 | 0.04 | 0.04 | 41 | 1023.2 |
| 20260830202020 | 73 | 313 | 18.0 | 34.0 | 0.00 | 0.04 | 0.04 | 42 | 1023.4 |
| 20260830201547 | 74 | 296 | 20.0 | 34.0 | 0.00 | 0.04 | 0.04 | 42 | 1023.5 |
| 20260830201018 | 77 | 304 | 17.0 | 26.0 | 0.00 | 0.04 | 0.04 | 41 | 1023.4 |
| 20260830200518 | 81 | 284 | 17.0 | 25.0 | 0.00 | 0.04 | 0.04 | 29 | 1023.2 |
| 20260830200041 | 81 | 246 | 17.0 | 27.0 | 0.00 | 0.04 | 0.04 | 30 | 1022.8 |
| 20260830195521 | 80 | 228 | 19.0 | 27.0 | 0.00 | 0.04 | 0.04 | 29 | 1022.9 |
| 20260830195020 | 81 | 248 | 15.0 | 25.0 | 0.00 | 0.04 | 0.04 | 29 | 1022.8 |
| 20260830194542 | 80 | 252 | 16.0 | 29.0 | 0.00 | 0.04 | 0.04 | 34 | 1022.9 |
| 20260830194022 | 80 | 257 | 17.0 | 29.0 | 0.00 | 0.04 | 0.04 | 31 | 1022.9 |
| 20260830193525 | 81 | 217 | 14.0 | 23.0 | 0.00 | 0.04 | 0.04 | 32 | 1023.0 |
| 20260830193039 | 81 | 238 | 17.0 | 29.0 | 0.00 | 0.04 | 0.04 | 32 | 1023.0 |
| 20260830192518 | 81 | 228 | 18.0 | 29.0 | 0.00 | 0.04 | 0.04 | 31 | 1023.1 |
| 20260830192021 | 81 | 266 | 13.0 | 23.0 | 0.00 | 0.04 | 0.04 | 34 | 1023.1 |
| 20260830191541 | 79 | 287 | 15.0 | 23.0 | 0.00 | 0.04 | 0.04 | 37 | 1023.2 |
| 20260830191020 | 80 | 236 | 15.0 | 23.0 | 0.00 | 0.04 | 0.04 | 33 | 1023.3 |
| 20260830190517 | 80 | 234 | 14.0 | 23.0 | 0.00 | 0.04 | 0.04 | 35 | 1023.4 |
| 20260830190043 | 78 | 280 | 14.0 | 22.0 | 0.00 | 0.04 | 0.04 | 38 | 1023.2 |
| 20260830185519 | 78 | 248 | 15.0 | 21.0 | 0.00 | 0.05 | 0.04 | 38 | 1023.4 |
| 20260830185020 | 79 | 254 | 14.0 | 21.0 | 0.00 | 0.05 | 0.04 | 37 | 1023.5 |
| 20260830184538 | 79 | 253 | 13.0 | 21.0 | 0.00 | 0.05 | 0.04 | 38 | 1023.5 |
| 20260830184016 | 78 | 222 | 14.0 | 21.0 | 0.00 | 0.05 | 0.04 | 37 | 1023.6 |
| 20260830183519 | 78 | 252 | 13.0 | 21.0 | 0.00 | 0.05 | 0.04 | 39 | 1023.5 |
| 20260830183036 | 78 | 233 | 14.0 | 23.0 | 0.00 | 0.05 | 0.04 | 38 | 1023.6 |
| 20260830182520 | 77 | 245 | 12.0 | 23.0 | 0.00 | 0.05 | 0.04 | 40 | 1023.7 |
| 20260830182020 | 78 | 239 | 15.0 | 23.0 | 0.00 | 0.05 | 0.04 | 39 | 1023.9 |
| 20260830181550 | 78 | 224 | 15.0 | 21.0 | 0.00 | 0.05 | 0.04 | 40 | 1023.8 |
| 20260830181020 | 77 | 257 | 11.0 | 22.0 | 0.00 | 0.05 | 0.04 | 42 | 1023.9 |
| 20260830180521 | 76 | 244 | 14.0 | 22.0 | 0.00 | 0.05 | 0.04 | 44 | 1024.0 |
| 20260830180040 | 76 | 240 | 13.0 | 20.0 | 0.00 | 0.05 | 0.04 | 44 | 1024.1 |
| 20260830175520 | 75 | 238 | 13.0 | 20.0 | 0.00 | 0.05 | 0.04 | 44 | 1024.1 |
| 20260830175020 | 76 | 259 | 10.0 | 18.0 | 0.00 | 0.05 | 0.04 | 44 | 1024.2 |
| 20260830174537 | 76 | 240 | 8.0 | 18.0 | 0.00 | 0.05 | 0.04 | 45 | 1024.2 |
| 20260830174020 | 75 | 226 | 10.0 | 18.0 | 0.00 | 0.05 | 0.04 | 45 | 1024.2 |
| 20260830173519 | 74 | 205 | 10.0 | 18.0 | 0.00 | 0.05 | 0.04 | 46 | 1024.3 |
| 20260830173052 | 74 | 254 | 12.0 | 19.0 | 0.00 | 0.05 | 0.04 | 45 | 1024.4 |
| 20260830172516 | 75 | 241 | 13.0 | 20.0 | 0.00 | 0.05 | 0.04 | 44 | 1024.3 |
| 20260830172020 | 74 | 244 | 14.0 | 21.0 | 0.00 | 0.05 | 0.04 | 45 | 1024.2 |
| 20260830171542 | 74 | 228 | 11.0 | 21.0 | 0.00 | 0.05 | 0.04 | 47 | 1024.3 |
| 20260830171020 | 75 | 215 | 15.0 | 21.0 | 0.00 | 0.05 | 0.04 | 46 | 1024.2 |
| 20260830170518 | 74 | 257 | 12.0 | 17.0 | 0.00 | 0.05 | 0.04 | 49 | 1024.2 |
| 20260830170036 | 74 | 256 | 11.0 | 22.0 | 0.00 | 0.05 | 0.04 | 48 | 1024.2 |
| 20260830165519 | 73 | 265 | 12.0 | 22.0 | 0.00 | 0.05 | 0.04 | 48 | 1024.3 |
| 20260830165018 | 73 | 236 | 15.0 | 22.0 | 0.00 | 0.05 | 0.04 | 48 | 1024.2 |
| 20260830164557 | 72 | 249 | 13.0 | 21.0 | 0.00 | 0.05 | 0.04 | 51 | 1024.2 |
| 20260830164018 | 70 | 262 | 9.0 | 15.0 | 0.00 | 0.05 | 0.04 | 52 | 1024.1 |
| 20260830163519 | 70 | 259 | 4.0 | 8.0 | 0.00 | 0.05 | 0.04 | 55 | 1024.3 |
| 20260830163051 | 70 | 293 | 4.0 | 9.0 | 0.00 | 0.05 | 0.04 | 54 | 1024.2 |
| 20260830162521 | 70 | 290 | 6.0 | 12.0 | 0.00 | 0.05 | 0.04 | 55 | 1024.3 |
| 20260830162018 | 70 | 291 | 4.0 | 12.0 | 0.00 | 0.05 | 0.04 | 57 | 1024.3 |
| 20260830161540 | 70 | 292 | 7.0 | 11.0 | 0.00 | 0.05 | 0.04 | 55 | 1024.2 |
| 20260830161020 | 71 | 282 | 8.0 | 11.0 | 0.00 | 0.05 | 0.04 | 55 | 1024.2 |
| 20260830160519 | 70 | 305 | 6.0 | 11.0 | 0.00 | 0.05 | 0.04 | 54 | 1024.0 |
| 20260830160036 | 70 | 306 | 7.0 | 11.0 | 0.00 | 0.05 | 0.04 | 57 | 1024.2 |
| 20260830155520 | 71 | 276 | 8.0 | 11.0 | 0.00 | 0.05 | 0.04 | 54 | 1024.1 |
| 20260830155018 | 71 | 269 | 6.0 | 11.0 | 0.00 | 0.05 | 0.04 | 55 | 1024.1 |
| 20260830154536 | 71 | 263 | 6.0 | 10.0 | 0.00 | 0.05 | 0.04 | 55 | 1024.0 |
| 20260830154018 | 71 | 290 | 5.0 | 8.0 | 0.00 | 0.05 | 0.04 | 57 | 1024.0 |
| 20260830153517 | 71 | 267 | 4.0 | 6.0 | 0.00 | 0.05 | 0.04 | 56 | 1024.0 |
| 20260830153038 | 70 | 267 | 3.0 | 5.0 | 0.00 | 0.05 | 0.04 | 60 | 1023.9 |
| 20260830152524 | 68 | 323 | 2.0 | 7.0 | 0.00 | 0.05 | 0.04 | 61 | 1023.9 |
| 20260830152020 | 68 | 327 | 3.0 | 7.0 | 0.00 | 0.05 | 0.04 | 60 | 1024.0 |
| 20260830151542 | 68 | 326 | 1.0 | 3.0 | 0.00 | 0.05 | 0.04 | 60 | 1024.0 |
| 20260830151020 | 67 | 0 | 0.0 | 1.0 | 0.00 | 0.05 | 0.04 | 62 | 1024.0 |
| 20260830150519 | 66 | 0 | 0.0 | 0.0 | 0.00 | 0.05 | 0.04 | 62 | 1023.9 |
| 20260830150040 | 66 | 0 | 0.0 | 0.0 | 0.00 | 0.05 | 0.04 | 62 | 1023.8 |
| 20260830145518 | 65 | 0 | 0.0 | 0.0 | 0.00 | 0.05 | 0.04 | 64 | 1023.9 |
| 20260830145017 | 65 | 0 | 0.0 | 0.0 | 0.00 | 0.05 | 0.04 | 71 | 1023.8 |
| 20260830144548 | 64 | 0 | 0.0 | 1.0 | 0.00 | 0.05 | 0.04 | 70 | 1023.9 |
| 20260830144018 | 64 | 0 | 0.0 | 2.0 | 0.00 | 0.05 | 0.04 | 71 | 1023.9 |
| 20260830143518 | 64 | 120 | 0.0 | 3.0 | 0.00 | 0.05 | 0.04 | 69 | 1024.0 |
| 20260830143036 | 64 | 94 | 1.0 | 3.0 | 0.00 | 0.05 | 0.04 | 70 | 1023.9 |
| 20260830142521 | 64 | 100 | 1.0 | 2.0 | 0.00 | 0.05 | 0.04 | 69 | 1024.0 |
| 20260830142018 | 63 | 101 | 1.0 | 4.0 | 0.00 | 0.05 | 0.04 | 70 | 1023.8 |
| 20260830141537 | 63 | 74 | 1.0 | 5.0 | 0.00 | 0.05 | 0.04 | 67 | 1023.8 |
| 20260830141019 | 63 | 64 | 3.0 | 5.0 | 0.00 | 0.05 | 0.04 | 68 | 1023.8 |
| 20260830140520 | 63 | 142 | 1.0 | 4.0 | 0.00 | 0.05 | 0.04 | 67 | 1023.7 |
| 20260830140037 | 63 | 0 | 0.0 | 2.0 | 0.00 | 0.05 | 0.04 | 67 | 1023.7 |
| 20260830135518 | 62 | 0 | 0.0 | 2.0 | 0.00 | 0.05 | 0.04 | 67 | 1023.6 |
| 20260830135020 | 62 | 28 | 0.0 | 4.0 | 0.00 | 0.05 | 0.04 | 69 | 1023.7 |
| 20260830134536 | 62 | 55 | 0.0 | 4.0 | 0.00 | 0.05 | 0.04 | 70 | 1023.6 |
| 20260830134017 | 61 | 39 | 2.0 | 5.0 | 0.00 | 0.05 | 0.04 | 71 | 1023.6 |
| 20260830133522 | 60 | 71 | 3.0 | 9.0 | 0.00 | 0.05 | 0.04 | 74 | 1023.6 |
| 20260830133048 | 59 | 59 | 4.0 | 9.0 | 0.00 | 0.05 | 0.04 | 77 | 1023.5 |
| 20260830132522 | 58 | 93 | 5.0 | 7.0 | 0.00 | 0.05 | 0.04 | 80 | 1023.4 |
| 20260830132019 | 58 | 81 | 3.0 | 5.0 | 0.00 | 0.05 | 0.04 | 81 | 1023.3 |
| 20260830131538 | 57 | 98 | 3.0 | 4.0 | 0.00 | 0.05 | 0.04 | 83 | 1023.4 |
| 20260830131020 | 57 | 0 | 0.0 | 5.0 | 0.00 | 0.05 | 0.04 | 84 | 1023.4 |
| 20260830130520 | 57 | 107 | 3.0 | 5.0 | 0.00 | 0.05 | 0.04 | 85 | 1023.4 |
| 20260830130036 | 57 | 86 | 2.0 | 5.0 | 0.00 | 0.05 | 0.04 | 84 | 1023.4 |
| 20260830125518 | 57 | 96 | 3.0 | 5.0 | 0.00 | 0.05 | 0.04 | 85 | 1023.2 |
| 20260830125022 | 56 | 88 | 3.0 | 7.0 | 0.00 | 0.05 | 0.04 | 86 | 1023.5 |
| 20260830124553 | 56 | 80 | 3.0 | 7.0 | 0.00 | 0.05 | 0.04 | 86 | 1023.4 |
| 20260830124016 | 57 | 105 | 5.0 | 7.0 | 0.00 | 0.05 | 0.04 | 85 | 1023.4 |
| 20260830123516 | 56 | 87 | 5.0 | 8.0 | 0.00 | 0.05 | 0.04 | 86 | 1023.2 |
| 20260830123044 | 56 | 120 | 6.0 | 10.0 | 0.00 | 0.05 | 0.04 | 86 | 1023.4 |
| 20260830122518 | 56 | 121 | 5.0 | 10.0 | 0.00 | 0.05 | 0.04 | 86 | 1023.4 |
| 20260830122019 | 56 | 134 | 7.0 | 10.0 | 0.00 | 0.05 | 0.04 | 87 | 1023.4 |
| 20260830121536 | 56 | 105 | 6.0 | 9.0 | 0.00 | 0.05 | 0.04 | 87 | 1023.4 |
| 20260830121020 | 56 | 110 | 6.0 | 9.0 | 0.00 | 0.05 | 0.04 | 87 | 1023.4 |
| 20260830120520 | 56 | 103 | 6.0 | 9.0 | 0.00 | 0.05 | 0.04 | 87 | 1023.4 |
| 20260830120037 | 56 | 103 | 4.0 | 7.0 | 0.00 | 0.05 | 0.04 | 87 | 1023.4 |
| 20260830115520 | 56 | 98 | 2.0 | 5.0 | 0.00 | 0.05 | 0.04 | 88 | 1023.4 |
| 20260830115017 | 56 | 101 | 4.0 | 5.0 | 0.00 | 0.05 | 0.04 | 88 | 1023.4 |
| 20260830114542 | 56 | 92 | 4.0 | 7.0 | 0.00 | 0.05 | 0.04 | 88 | 1023.4 |
| 20260830114019 | 56 | 110 | 4.0 | 7.0 | 0.00 | 0.05 | 0.04 | 88 | 1023.4 |
| 20260830113523 | 56 | 112 | 5.0 | 7.0 | 0.00 | 0.05 | 0.04 | 88 | 1023.4 |
| 20260830113038 | 56 | 103 | 3.0 | 4.0 | 0.00 | 0.05 | 0.04 | 87 | 1023.3 |
| 20260830112519 | 56 | 102 | 1.0 | 4.0 | 0.00 | 0.05 | 0.04 | 87 | 1023.2 |
| 20260830112020 | 56 | 127 | 3.0 | 4.0 | 0.00 | 0.05 | 0.04 | 87 | 1023.4 |
| 20260830111539 | 56 | 131 | 3.0 | 4.0 | 0.01 | 0.05 | 0.04 | 86 | 1023.4 |
| 20260830111018 | 57 | 148 | 3.0 | 4.0 | 0.02 | 0.05 | 0.04 | 85 | 1023.3 |
| 20260830110518 | 57 | 115 | 2.0 | 4.0 | 0.02 | 0.05 | 0.04 | 85 | 1023.3 |
| 20260830110037 | 57 | 110 | 1.0 | 4.0 | 0.02 | 0.05 | 0.04 | 84 | 1023.4 |
| 20260830105519 | 58 | 130 | 2.0 | 4.0 | 0.04 | 0.05 | 0.04 | 84 | 1023.6 |
| 20260830105019 | 59 | 98 | 2.0 | 5.0 | 0.04 | 0.05 | 0.04 | 83 | 1023.5 |
| 20260830104535 | 59 | 46 | 3.0 | 5.0 | 0.04 | 0.05 | 0.04 | 79 | 1023.6 |
| 20260830104020 | 59 | 31 | 4.0 | 5.0 | 0.04 | 0.05 | 0.04 | 78 | 1023.6 |
| 20260830103518 | 59 | 44 | 2.0 | 5.0 | 0.04 | 0.05 | 0.04 | 78 | 1023.7 |
| 20260830103040 | 60 | 39 | 0.0 | 5.0 | 0.04 | 0.05 | 0.04 | 77 | 1023.8 |
| 20260830102518 | 60 | 355 | 1.0 | 4.0 | 0.04 | 0.05 | 0.04 | 75 | 1023.8 |
| 20260830102021 | 60 | 0 | 0.0 | 5.0 | 0.04 | 0.05 | 0.04 | 73 | 1023.9 |
| 20260830101538 | 60 | 285 | 1.0 | 7.0 | 0.03 | 0.04 | 0.03 | 73 | 1024.3 |
| 20260830101018 | 61 | 288 | 4.0 | 17.0 | 0.02 | 0.03 | 0.02 | 71 | 1024.5 |
| 20260830100521 | 62 | 296 | 4.0 | 17.0 | 0.02 | 0.03 | 0.02 | 67 | 1024.6 |
| 20260830100038 | 63 | 294 | 11.0 | 17.0 | 0.01 | 0.02 | 0.01 | 65 | 1024.6 |
| 20260830095520 | 63 | 260 | 6.0 | 9.0 | 0.00 | 0.01 | 0.00 | 60 | 1024.3 |
| 20260830095016 | 63 | 248 | 3.0 | 6.0 | 0.00 | 0.01 | 0.00 | 56 | 1024.1 |
| 20260830094539 | 64 | 303 | 2.0 | 4.0 | 0.00 | 0.01 | 0.00 | 55 | 1023.6 |
| 20260830094017 | 64 | 262 | 0.0 | 3.0 | 0.00 | 0.01 | 0.00 | 55 | 1023.3 |
| 20260830093524 | 64 | 293 | 0.0 | 4.0 | 0.00 | 0.01 | 0.00 | 56 | 1023.1 |
| 20260830093036 | 63 | 281 | 2.0 | 4.0 | 0.00 | 0.01 | 0.00 | 56 | 1023.1 |
| 20260830092518 | 66 | 0 | 0.0 | 1.0 | 0.00 | 0.01 | 0.00 | 52 | 1023.0 |
| 20260830092020 | 65 | 0 | 0.0 | 2.0 | 0.00 | 0.01 | 0.00 | 53 | 1023.0 |
| 20260830091536 | 64 | 0 | 0.0 | 2.0 | 0.00 | 0.01 | 0.00 | 55 | 1023.0 |
| 20260830091018 | 65 | 334 | 1.0 | 2.0 | 0.00 | 0.01 | 0.00 | 54 | 1023.1 |
| 20260830090517 | 65 | 0 | 0.0 | 2.0 | 0.00 | 0.01 | 0.00 | 53 | 1023.0 |
| 20260830090045 | 66 | 0 | 0.0 | 2.0 | 0.00 | 0.01 | 0.00 | 52 | 1023.1 |
| 20260830085518 | 67 | 0 | 0.0 | 3.0 | 0.00 | 0.01 | 0.00 | 51 | 1023.0 |
| 20260830085020 | 67 | 0 | 0.0 | 3.0 | 0.00 | 0.01 | 0.00 | 51 | 1023.0 |
| 20260830084541 | 66 | 205 | 0.0 | 6.0 | 0.00 | 0.01 | 0.00 | 52 | 1023.0 |
| 20260830084021 | 66 | 209 | 0.0 | 6.0 | 0.00 | 0.01 | 0.00 | 52 | 1023.0 |
| 20260830083518 | 66 | 162 | 1.0 | 7.0 | 0.00 | 0.01 | 0.00 | 52 | 1023.0 |
| 20260830083059 | 66 | 153 | 3.0 | 7.0 | 0.00 | 0.01 | 0.00 | 52 | 1022.9 |
| 20260830082520 | 67 | 135 | 3.0 | 7.0 | 0.00 | 0.01 | 0.00 | 52 | 1022.8 |
| 20260830082016 | 66 | 139 | 2.0 | 5.0 | 0.00 | 0.01 | 0.00 | 52 | 1022.8 |
| 20260830081536 | 67 | 165 | 3.0 | 5.0 | 0.00 | 0.01 | 0.00 | 51 | 1023.0 |
| 20260830081020 | 67 | 177 | 3.0 | 6.0 | 0.00 | 0.01 | 0.00 | 51 | 1023.0 |
| 20260830080519 | 66 | 158 | 2.0 | 6.0 | 0.00 | 0.01 | 0.00 | 52 | 1023.1 |
| 20260830080036 | 66 | 143 | 0.0 | 4.0 | 0.00 | 0.01 | 0.00 | 50 | 1023.4 |
| 20260830075520 | 67 | 0 | 0.0 | 8.0 | 0.00 | 0.01 | 0.00 | 49 | 1023.2 |
| 20260830075023 | 67 | 200 | 2.0 | 10.0 | 0.00 | 0.01 | 0.00 | 49 | 1023.2 |
| 20260830074548 | 67 | 232 | 6.0 | 10.0 | 0.00 | 0.01 | 0.00 | 49 | 1023.2 |
| 20260830074017 | 67 | 264 | 2.0 | 6.0 | 0.00 | 0.01 | 0.00 | 49 | 1023.2 |
| 20260830073516 | 67 | 124 | 0.0 | 9.0 | 0.00 | 0.01 | 0.00 | 48 | 1023.4 |
| 20260830073037 | 67 | 310 | 2.0 | 9.0 | 0.00 | 0.01 | 0.00 | 48 | 1023.4 |
| 20260830072521 | 66 | 0 | 0.0 | 1.0 | 0.00 | 0.01 | 0.00 | 49 | 1023.5 |
| 20260830072018 | 66 | 0 | 0.0 | 6.0 | 0.00 | 0.01 | 0.00 | 49 | 1023.4 |
| 20260830071538 | 66 | 0 | 0.0 | 9.0 | 0.00 | 0.01 | 0.00 | 49 | 1023.2 |
| 20260830071020 | 67 | 160 | 5.0 | 9.0 | 0.00 | 0.01 | 0.00 | 49 | 1023.3 |
| 20260830070519 | 67 | 310 | 2.0 | 6.0 | 0.00 | 0.01 | 0.00 | 48 | 1023.2 |
| 20260830070053 | 68 | 309 | 1.0 | 5.0 | 0.00 | 0.01 | 0.00 | 46 | 1023.2 |
| 20260830065518 | 68 | 34 | 2.0 | 8.0 | 0.00 | 0.01 | 0.00 | 47 | 1023.2 |
| 20260830065021 | 68 | 87 | 3.0 | 8.0 | 0.00 | 0.01 | 0.00 | 48 | 1023.2 |
| 20260830064536 | 68 | 91 | 3.0 | 14.0 | 0.00 | 0.01 | 0.00 | 48 | 1023.2 |
| 20260830064020 | 68 | 73 | 4.0 | 14.0 | 0.00 | 0.01 | 0.00 | 47 | 1023.2 |
| 20260830063520 | 68 | 81 | 5.0 | 11.0 | 0.00 | 0.01 | 0.00 | 48 | 1023.2 |
| 20260830063040 | 68 | 174 | 6.0 | 11.0 | 0.00 | 0.01 | 0.00 | 48 | 1023.3 |
| 20260830062519 | 67 | 148 | 5.0 | 9.0 | 0.00 | 0.01 | 0.00 | 49 | 1023.1 |
| 20260830062020 | 67 | 146 | 5.0 | 9.0 | 0.00 | 0.01 | 0.00 | 50 | 1023.2 |
| 20260830061543 | 67 | 162 | 2.0 | 8.0 | 0.00 | 0.01 | 0.00 | 50 | 1023.2 |
| 20260830061019 | 67 | 0 | 0.0 | 8.0 | 0.00 | 0.01 | 0.00 | 50 | 1023.2 |
| 20260830060523 | 67 | 219 | 2.0 | 10.0 | 0.00 | 0.01 | 0.00 | 50 | 1023.2 |
| 20260830060040 | 67 | 188 | 6.0 | 10.0 | 0.00 | 0.01 | 0.00 | 50 | 1023.1 |
| 20260830055518 | 67 | 194 | 3.0 | 9.0 | 0.00 | 0.01 | 0.01 | 50 | 1023.1 |
| 20260830055021 | 67 | 203 | 6.0 | 9.0 | 0.00 | 0.01 | 0.01 | 51 | 1023.1 |
| 20260830054538 | 67 | 211 | 1.0 | 4.0 | 0.00 | 0.01 | 0.01 | 51 | 1023.2 |
| 20260830054019 | 67 | 158 | 0.0 | 3.0 | 0.00 | 0.01 | 0.01 | 51 | 1023.2 |
| 20260830053520 | 67 | 175 | 1.0 | 5.0 | 0.00 | 0.01 | 0.01 | 50 | 1023.4 |
| 20260830053038 | 68 | 196 | 3.0 | 6.0 | 0.00 | 0.01 | 0.01 | 50 | 1023.2 |
| 20260830052520 | 68 | 207 | 3.0 | 8.0 | 0.00 | 0.01 | 0.01 | 49 | 1023.4 |
| 20260830052017 | 69 | 218 | 4.0 | 8.0 | 0.00 | 0.01 | 0.01 | 49 | 1023.4 |
| 20260830051548 | 69 | 208 | 3.0 | 8.0 | 0.00 | 0.01 | 0.01 | 48 | 1023.6 |
| 20260830051018 | 69 | 208 | 3.0 | 8.0 | 0.00 | 0.01 | 0.01 | 47 | 1023.5 |
| 20260830050520 | 69 | 191 | 6.0 | 12.0 | 0.00 | 0.01 | 0.01 | 47 | 1023.6 |
| 20260830050038 | 70 | 203 | 5.0 | 15.0 | 0.00 | 0.01 | 0.01 | 47 | 1023.4 |
| 20260830045520 | 70 | 199 | 10.0 | 15.0 | 0.00 | 0.01 | 0.01 | 47 | 1023.7 |
| 20260830045017 | 70 | 193 | 10.0 | 15.0 | 0.00 | 0.01 | 0.01 | 46 | 1023.8 |
| 20260830044540 | 70 | 230 | 8.0 | 12.0 | 0.00 | 0.01 | 0.01 | 43 | 1023.8 |
| 20260830044021 | 70 | 215 | 5.0 | 11.0 | 0.00 | 0.01 | 0.01 | 40 | 1023.7 |
| 20260830043519 | 70 | 229 | 8.0 | 11.0 | 0.00 | 0.01 | 0.01 | 41 | 1023.8 |
| 20260830043043 | 70 | 230 | 8.0 | 11.0 | 0.00 | 0.01 | 0.01 | 40 | 1023.7 |
| 20260830042525 | 70 | 259 | 6.0 | 8.0 | 0.00 | 0.01 | 0.01 | 39 | 1023.8 |
| 20260830042018 | 70 | 236 | 6.0 | 8.0 | 0.00 | 0.01 | 0.01 | 39 | 1023.8 |
| 20260830041546 | 71 | 264 | 3.0 | 16.0 | 0.00 | 0.01 | 0.01 | 38 | 1023.7 |
| 20260830041022 | 71 | 245 | 3.0 | 29.0 | 0.00 | 0.01 | 0.01 | 37 | 1023.8 |
| 20260830040520 | 71 | 223 | 13.0 | 31.0 | 0.00 | 0.01 | 0.01 | 37 | 1023.8 |
| 20260830040041 | 71 | 235 | 22.0 | 31.0 | 0.00 | 0.01 | 0.01 | 37 | 1023.6 |
| 20260830035520 | 71 | 250 | 6.0 | 18.0 | 0.00 | 0.01 | 0.01 | 39 | 1023.8 |
| 20260830035021 | 71 | 230 | 2.0 | 13.0 | 0.00 | 0.01 | 0.01 | 43 | 1023.6 |
| 20260830034541 | 72 | 252 | 5.0 | 17.0 | 0.00 | 0.01 | 0.01 | 43 | 1023.6 |
| 20260830034019 | 72 | 224 | 10.0 | 17.0 | 0.00 | 0.01 | 0.01 | 43 | 1023.6 |
| 20260830033520 | 72 | 213 | 11.0 | 19.0 | 0.00 | 0.01 | 0.01 | 43 | 1023.7 |
| 20260830033045 | 72 | 231 | 8.0 | 19.0 | 0.00 | 0.01 | 0.01 | 43 | 1023.6 |
| 20260830032519 | 72 | 210 | 13.0 | 19.0 | 0.00 | 0.01 | 0.01 | 42 | 1023.5 |
| 20260830032017 | 72 | 206 | 12.0 | 19.0 | 0.00 | 0.01 | 0.01 | 41 | 1023.4 |
| 20260830031538 | 72 | 214 | 12.0 | 19.0 | 0.00 | 0.01 | 0.01 | 40 | 1023.4 |
| 20260830031021 | 72 | 207 | 7.0 | 13.0 | 0.00 | 0.01 | 0.01 | 40 | 1023.2 |
| 20260830030522 | 72 | 202 | 6.0 | 14.0 | 0.00 | 0.01 | 0.01 | 40 | 1023.1 |
| 20260830030047 | 72 | 224 | 9.0 | 14.0 | 0.00 | 0.01 | 0.01 | 40 | 1023.0 |